Home > Weather > Samarkand > Past weeks

Flag for Uzbekistan Past Weather in Samarkand, Uzbekistan — Yesterday and Last 2 Weeks

Now
72 °F

Clear.


Feels Like: 77 °F
Forecast: 72 / 103 °F
Wind: 9 mph from Southeast

Location: Samarkand

Current Time: Jul 24, 2016 at 6:07:42 AM

Latest Report: Jul 24, 2016 at 5:00 AM


Visibility: N/A

Pressure: 29.74 "Hg (27.36 "Hg at 721m altitude)

Humidity: 36%

Dew Point: 43 °F

Location of SamarkandLocation

Past Weather in Samarkand — Graph

°F

Samarkand Temperature Yesterday

Maximum temperature yesterday: 93 °F (at 3:30 PM)
Minimum temperature yesterday: 70 °F (at 2:00 AM)
Average temperature yesterday: 81 °F

High & Low Weather Summary for the Past Weeks

 TemperatureHumidityPressure
High100 °F (Jul 12, 3:00 PM)69% (Jul 13, 1:30 AM)29.95 "Hg (Jul 13, 1:30 AM)
Low64 °F (Jul 10, 3:30 AM)12% (Jul 10, 2:30 PM)29.65 "Hg (Jul 11, 3:30 PM)
Average83 °F32%29.77 "Hg
* Reported Jul 9 4:00 AM — Jul 24 4:30 AM, Samarkand, Weather by CustomWeather, © 2016

Note: Actual official high and low records may vary slightly from our data, if they occured in-between our weather recording intervals... More about our weather records

Advertising

Samarkand Weather History for the Previous 24 Hours

Scroll right to see more
 ConditionsComfort  
Time TempWeatherWind HumidityBarometerVisibility
4:30 AM
Sun, Jul 24
72 °FClear.8 mph38%29.74 "Hg4 mi
4:00 AM72 °FClear.8 mph36%29.71 "Hg4 mi
3:30 AM73 °FClear.10 mph31%29.71 "Hg4 mi
3:00 AM73 °FClear.10 mph31%29.71 "Hg4 mi
2:30 AM73 °FClear.8 mph29%29.71 "Hg4 mi
2:00 AM75 °FClear.8 mph27%29.71 "Hg4 mi
1:30 AM75 °FClear.8 mph27%29.71 "Hg4 mi
12:30 AM75 °FClear.8 mph27%29.74 "Hg4 mi
12:00 AM77 °FClear.10 mph24%29.74 "Hg4 mi
11:30 PM
Sat, Jul 23
77 °FClear.9 mph24%29.74 "Hg4 mi
11:00 PM79 °FClear.8 mph24%29.74 "Hg4 mi
10:30 PM79 °FClear.9 mph23%29.74 "Hg4 mi
10:00 PM79 °FClear.7 mph21%29.77 "Hg4 mi
9:30 PM81 °FClear.9 mph15%29.77 "Hg4 mi
9:00 PM81 °FClear.16 mph21%29.74 "Hg4 mi
8:30 PM81 °FClear.15 mph26%29.74 "Hg4 mi
8:00 PM82 °FClear.15 mph26%29.74 "HgN/A
7:30 PM84 °FClear.16 mph27%29.74 "HgN/A
7:00 PM86 °FClear.15 mph25%29.74 "HgN/A
6:30 PM88 °FClear.16 mph25%29.74 "HgN/A
6:00 PM88 °FClear.16 mph24%29.74 "HgN/A
5:30 PM90 °FClear.17 mph22%29.74 "HgN/A
5:00 PM91 °FClear.20 mph21%29.74 "HgN/A
4:30 PM91 °FClear.20 mph20%29.77 "HgN/A
4:00 PM91 °FClear.20 mph18%29.77 "HgN/A
3:30 PM93 °FClear.16 mph17%29.77 "HgN/A
3:00 PM91 °FClear.13 mph21%29.77 "HgN/A
2:30 PM91 °FClear.8 mph18%29.77 "HgN/A
2:00 PM91 °FClear.8 mph18%29.77 "HgN/A
1:30 PM90 °FClear.8 mph21%29.77 "HgN/A
1:00 PM90 °FClear.12 mph21%29.77 "HgN/A
12:30 PM88 °FClear.14 mph22%29.80 "HgN/A
12:00 PM88 °FClear.17 mph21%29.80 "HgN/A
11:30 AM88 °FClear.20 mph22%29.80 "HgN/A
11:00 AM88 °FClear.21 mph21%29.80 "HgN/A
10:30 AM86 °FClear.20 mph22%29.80 "HgN/A
10:00 AM84 °FClear.22 mph22%29.80 "HgN/A
9:30 AM84 °FClear.21 mph23%29.80 "HgN/A
9:00 AM82 °FClear.17 mph25%29.80 "HgN/A
8:30 AM79 °FClear.9 mph30%29.80 "HgN/A
8:00 AM77 °FClear.8 mph36%29.80 "HgN/A
7:30 AM75 °FClear.7 mph39%29.80 "HgN/A
7:00 AM73 °FClear.7 mph38%29.80 "HgN/A
6:30 AM72 °FClear.7 mph41%29.80 "HgN/A
6:00 AM70 °FClear.8 mph43%29.80 "HgN/A
Weather by CustomWeather, © 2016

See weather overviewHow to use our weather pages